Time,TemperatureF,DewpointF,PressureIn,WindDirection,WindDirectionDegrees,WindSpeedMPH,WindSpeedGustMPH,Humidity,HourlyPrecipIn,Conditions,Clouds,dailyrainin,SolarRadiationWatts/m^2,SoftwareType,DateUTC
2013-05-26 00:13:00,50.0,41.0,30.31,East,92,0.0,0.0,71,0.00,,,0.00,0,weatherlink.com 1.10,2013-05-26 04:13:00,
2013-05-26 00:28:00,49.4,41.0,30.31,East,92,0.0,0.0,73,0.00,,,0.00,0,weatherlink.com 1.10,2013-05-26 04:28:00,
2013-05-26 00:43:00,48.8,41.0,30.30,East,92,0.0,0.0,74,0.00,,,0.00,0,weatherlink.com 1.10,2013-05-26 04:43:00,
2013-05-26 00:58:00,48.1,41.0,30.30,East,92,0.0,0.0,75,0.00,,,0.00,0,weatherlink.com 1.10,2013-05-26 04:58:00,
2013-05-26 01:13:00,47.5,41.0,30.30,East,92,0.0,0.0,77,0.00,,,0.00,0,weatherlink.com 1.10,2013-05-26 05:13:00,
2013-05-26 01:28:00,47.0,40.0,30.31,East,92,0.0,0.0,77,0.00,,,0.00,0,weatherlink.com 1.10,2013-05-26 05:28:00,
2013-05-26 01:43:00,46.5,40.0,30.31,East,92,0.0,0.0,79,0.00,,,0.00,0,weatherlink.com 1.10,2013-05-26 05:43:00,
2013-05-26 01:58:00,46.0,40.0,30.31,East,92,0.0,0.0,80,0.00,,,0.00,0,weatherlink.com 1.10,2013-05-26 05:58:00,
2013-05-26 02:13:00,45.6,40.0,30.31,East,92,0.0,0.0,81,0.00,,,0.00,0,weatherlink.com 1.10,2013-05-26 06:13:00,
2013-05-26 02:28:00,45.7,41.0,30.31,East,92,0.0,3.0,82,0.00,,,0.00,0,weatherlink.com 1.10,2013-05-26 06:28:00,
2013-05-26 02:43:00,46.5,41.0,30.31,ESE,103,1.0,5.0,81,0.00,,,0.00,0,weatherlink.com 1.10,2013-05-26 06:43:00,
2013-05-26 02:58:00,46.9,41.0,30.31,East,98,1.0,5.0,79,0.00,,,0.00,0,weatherlink.com 1.10,2013-05-26 06:58:00,
2013-05-26 03:13:00,46.9,40.0,30.31,East,97,0.0,3.0,78,0.00,,,0.00,0,weatherlink.com 1.10,2013-05-26 07:13:00,
2013-05-26 03:28:00,47.0,40.0,30.31,ENE,71,1.0,7.0,78,0.00,,,0.00,0,weatherlink.com 1.10,2013-05-26 07:28:00,
2013-05-26 03:43:00,47.0,40.0,30.31,ENE,71,1.0,2.0,78,0.00,,,0.00,0,weatherlink.com 1.10,2013-05-26 07:43:00,
2013-05-26 03:58:00,46.8,40.0,30.31,ENE,71,0.0,0.0,77,0.00,,,0.00,0,weatherlink.com 1.10,2013-05-26 07:58:00,
2013-05-26 04:13:00,46.5,40.0,30.31,ENE,71,0.0,0.0,77,0.00,,,0.00,0,weatherlink.com 1.10,2013-05-26 08:13:00,
2013-05-26 04:28:00,46.0,40.0,30.31,ENE,71,0.0,0.0,78,0.00,,,0.00,0,weatherlink.com 1.10,2013-05-26 08:28:00,
2013-05-26 04:43:00,45.3,39.0,30.31,ENE,71,0.0,0.0,79,0.00,,,0.00,0,weatherlink.com 1.10,2013-05-26 08:43:00,
2013-05-26 04:58:00,44.8,39.0,30.31,ENE,71,0.0,0.0,80,0.00,,,0.00,0,weatherlink.com 1.10,2013-05-26 08:58:00,
2013-05-26 05:13:00,44.3,39.0,30.32,ENE,71,0.0,0.0,81,0.00,,,0.00,0,weatherlink.com 1.10,2013-05-26 09:13:00,
2013-05-26 05:29:00,43.8,38.0,30.32,ENE,71,0.0,0.0,81,0.00,,,0.00,0,weatherlink.com 1.10,2013-05-26 09:29:00,
2013-05-26 05:44:00,43.4,39.0,30.32,ENE,71,0.0,0.0,83,0.00,,,0.00,0,weatherlink.com 1.10,2013-05-26 09:44:00,
2013-05-26 05:59:00,43.1,39.0,30.32,ENE,71,0.0,1.0,84,0.00,,,0.00,0,weatherlink.com 1.10,2013-05-26 09:59:00,
2013-05-26 06:14:00,43.0,39.0,30.32,ENE,71,0.0,0.0,84,0.00,,,0.00,5,weatherlink.com 1.10,2013-05-26 10:14:00,
2013-05-26 06:29:00,42.8,38.0,30.32,ENE,71,0.0,0.0,84,0.00,,,0.00,12,weatherlink.com 1.10,2013-05-26 10:29:00,
2013-05-26 06:44:00,43.1,39.0,30.33,ENE,71,0.0,3.0,85,0.00,,,0.00,19,weatherlink.com 1.10,2013-05-26 10:44:00,
2013-05-26 06:59:00,43.5,39.0,30.33,ENE,71,0.0,0.0,85,0.00,,,0.00,25,weatherlink.com 1.10,2013-05-26 10:59:00,
2013-05-26 07:14:00,43.9,39.0,30.33,ENE,71,0.0,2.0,84,0.00,,,0.00,33,weatherlink.com 1.10,2013-05-26 11:14:00,
2013-05-26 07:29:00,44.8,40.0,30.34,ENE,71,0.0,2.0,83,0.00,,,0.00,155,weatherlink.com 1.10,2013-05-26 11:29:00,
2013-05-26 07:44:00,46.8,41.0,30.33,ENE,71,0.0,2.0,80,0.00,,,0.00,211,weatherlink.com 1.10,2013-05-26 11:44:00,
2013-05-26 07:59:00,48.9,41.0,30.34,ENE,71,0.0,2.0,75,0.00,,,0.00,262,weatherlink.com 1.10,2013-05-26 11:59:00,
2013-05-26 08:14:00,50.7,42.0,30.35,ENE,71,1.0,2.0,72,0.00,,,0.00,279,weatherlink.com 1.10,2013-05-26 12:14:00,
2013-05-26 08:29:00,52.5,42.0,30.34,East,80,2.0,4.0,68,0.00,,,0.00,330,weatherlink.com 1.10,2013-05-26 12:29:00,
2013-05-26 08:44:00,54.5,43.0,30.35,East,80,1.0,2.0,65,0.00,,,0.00,425,weatherlink.com 1.10,2013-05-26 12:44:00,
2013-05-26 08:59:00,56.7,43.0,30.35,ENE,78,1.0,4.0,61,0.00,,,0.00,489,weatherlink.com 1.10,2013-05-26 12:59:00,
2013-05-26 09:14:00,58.4,42.0,30.34,East,82,1.0,7.0,55,0.00,,,0.00,478,weatherlink.com 1.10,2013-05-26 13:14:00,
2013-05-26 09:29:00,59.3,42.0,30.34,East,79,1.0,4.0,53,0.00,,,0.00,459,weatherlink.com 1.10,2013-05-26 13:29:00,
2013-05-26 09:44:00,60.2,42.0,30.33,ENE,69,2.0,7.0,51,0.00,,,0.00,503,weatherlink.com 1.10,2013-05-26 13:44:00,
2013-05-26 09:59:00,60.7,42.0,30.34,ESE,110,0.0,7.0,50,0.00,,,0.00,536,weatherlink.com 1.10,2013-05-26 13:59:00,
2013-05-26 10:14:00,60.7,41.0,30.34,ENE,75,2.0,9.0,49,0.00,,,0.00,596,weatherlink.com 1.10,2013-05-26 14:14:00,
2013-05-26 10:29:00,60.6,41.0,30.33,ESE,106,1.0,8.0,48,0.00,,,0.00,629,weatherlink.com 1.10,2013-05-26 14:29:00,
2013-05-26 10:45:00,61.5,42.0,30.33,South,179,3.0,5.0,49,0.00,,,0.00,693,weatherlink.com 1.10,2013-05-26 14:45:00,
2013-05-26 11:00:00,62.1,43.0,30.33,ENE,78,1.0,4.0,49,0.00,,,0.00,798,weatherlink.com 1.10,2013-05-26 15:00:00,
2013-05-26 11:15:00,62.6,42.0,30.33,ENE,64,1.0,8.0,47,0.00,,,0.00,703,weatherlink.com 1.10,2013-05-26 15:15:00,
2013-05-26 11:30:00,63.6,42.0,30.32,East,85,1.0,9.0,46,0.00,,,0.00,758,weatherlink.com 1.10,2013-05-26 15:30:00,
2013-05-26 11:45:00,63.5,42.0,30.32,East,82,3.0,8.0,46,0.00,,,0.00,708,weatherlink.com 1.10,2013-05-26 15:45:00,
2013-05-26 12:00:00,64.5,43.0,30.32,ENE,72,0.0,7.0,45,0.00,,,0.00,773,weatherlink.com 1.10,2013-05-26 16:00:00,
2013-05-26 12:15:00,65.0,42.0,30.32,South,173,0.0,5.0,43,0.00,,,0.00,900,weatherlink.com 1.10,2013-05-26 16:15:00,
2013-05-26 12:30:00,64.1,41.0,30.32,NE,38,0.0,8.0,43,0.00,,,0.00,819,weatherlink.com 1.10,2013-05-26 16:30:00,
2013-05-26 12:45:00,64.6,41.0,30.31,ESE,102,3.0,5.0,42,0.00,,,0.00,847,weatherlink.com 1.10,2013-05-26 16:45:00,
2013-05-26 13:00:00,65.6,41.0,30.32,ENE,74,4.0,8.0,41,0.00,,,0.00,779,weatherlink.com 1.10,2013-05-26 17:00:00,
2013-05-26 13:15:00,66.2,41.0,30.30,ENE,68,4.0,9.0,40,0.00,,,0.00,805,weatherlink.com 1.10,2013-05-26 17:15:00,
2013-05-26 13:30:00,65.9,41.0,30.31,NE,42,4.0,8.0,40,0.00,,,0.00,780,weatherlink.com 1.10,2013-05-26 17:30:00,
2013-05-26 13:45:00,66.0,41.0,30.30,East,84,3.0,8.0,41,0.00,,,0.00,846,weatherlink.com 1.10,2013-05-26 17:45:00,
2013-05-26 14:00:00,66.5,41.0,30.30,ENE,75,0.0,5.0,39,0.00,,,0.00,979,weatherlink.com 1.10,2013-05-26 18:00:00,
2013-05-26 14:15:00,67.2,40.0,30.30,ENE,68,4.0,6.0,37,0.00,,,0.00,967,weatherlink.com 1.10,2013-05-26 18:15:00,
2013-05-26 14:30:00,67.3,41.0,30.29,ESE,106,0.0,8.0,39,0.00,,,0.00,977,weatherlink.com 1.10,2013-05-26 18:30:00,
2013-05-26 14:45:00,67.4,40.0,30.29,ENE,61,2.0,8.0,37,0.00,,,0.00,991,weatherlink.com 1.10,2013-05-26 18:45:00,
2013-05-26 15:00:00,67.5,40.0,30.28,East,84,5.0,5.0,37,0.00,,,0.00,833,weatherlink.com 1.10,2013-05-26 19:00:00,
2013-05-26 15:15:00,67.9,38.0,30.28,ENE,74,3.0,10.0,34,0.00,,,0.00,946,weatherlink.com 1.10,2013-05-26 19:15:00,
2013-05-26 15:30:00,68.6,38.0,30.27,SE,130,2.0,5.0,33,0.00,,,0.00,779,weatherlink.com 1.10,2013-05-26 19:30:00,
2013-05-26 15:45:00,68.2,39.0,30.27,ENE,74,3.0,7.0,34,0.00,,,0.00,619,weatherlink.com 1.10,2013-05-26 19:45:00,
2013-05-26 16:00:00,69.0,39.0,30.27,ENE,69,0.0,5.0,34,0.00,,,0.00,788,weatherlink.com 1.10,2013-05-26 20:00:00,
2013-05-26 16:15:00,68.8,40.0,30.26,East,87,2.0,5.0,35,0.00,,,0.00,640,weatherlink.com 1.10,2013-05-26 20:15:00,
2013-05-26 16:30:00,68.5,39.0,30.26,East,90,0.0,7.0,34,0.00,,,0.00,686,weatherlink.com 1.10,2013-05-26 20:30:00,
2013-05-26 16:45:00,68.5,39.0,30.25,SE,139,2.0,6.0,34,0.00,,,0.00,513,weatherlink.com 1.10,2013-05-26 20:45:00,
2013-05-26 17:00:00,68.5,39.0,30.25,East,82,0.0,6.0,34,0.00,,,0.00,359,weatherlink.com 1.10,2013-05-26 21:00:00,
2013-05-26 17:15:00,68.6,37.0,30.25,ENE,78,4.0,5.0,31,0.00,,,0.00,378,weatherlink.com 1.10,2013-05-26 21:15:00,
2013-05-26 17:30:00,68.1,38.0,30.25,East,82,2.0,8.0,33,0.00,,,0.00,693,weatherlink.com 1.10,2013-05-26 21:30:00,
2013-05-26 17:45:00,68.4,38.0,30.24,East,90,0.0,8.0,33,0.00,,,0.00,276,weatherlink.com 1.10,2013-05-26 21:45:00,
2013-05-26 18:00:00,68.3,38.0,30.24,East,82,0.0,6.0,33,0.00,,,0.00,299,weatherlink.com 1.10,2013-05-26 22:00:00,
2013-05-26 18:15:00,67.9,38.0,30.24,East,96,0.0,3.0,33,0.00,,,0.00,265,weatherlink.com 1.10,2013-05-26 22:15:00,
2013-05-26 18:30:00,67.7,37.0,30.23,South,190,1.0,4.0,33,0.00,,,0.00,200,weatherlink.com 1.10,2013-05-26 22:30:00,
2013-05-26 18:45:00,67.4,39.0,30.23,ESE,122,0.0,3.0,35,0.00,,,0.00,162,weatherlink.com 1.10,2013-05-26 22:45:00,
2013-05-26 19:00:00,67.2,38.0,30.22,ENE,78,3.0,5.0,34,0.00,,,0.00,192,weatherlink.com 1.10,2013-05-26 23:00:00,
2013-05-26 19:15:00,67.1,38.0,30.22,ENE,75,2.0,7.0,35,0.00,,,0.00,174,weatherlink.com 1.10,2013-05-26 23:15:00,
2013-05-26 19:30:00,66.9,38.0,30.22,ENE,69,2.0,5.0,35,0.00,,,0.00,137,weatherlink.com 1.10,2013-05-26 23:30:00,
2013-05-26 19:45:00,66.6,39.0,30.21,East,81,0.0,2.0,36,0.00,,,0.00,100,weatherlink.com 1.10,2013-05-26 23:45:00,
2013-05-26 20:00:00,66.1,38.0,30.21,ENE,78,0.0,4.0,36,0.00,,,0.00,70,weatherlink.com 1.10,2013-05-27 00:00:00,
2013-05-26 20:15:00,65.7,39.0,30.21,East,84,2.0,4.0,37,0.00,,,0.00,44,weatherlink.com 1.10,2013-05-27 00:15:00,
2013-05-26 20:30:00,65.1,40.0,30.20,ENE,74,0.0,3.0,40,0.00,,,0.00,32,weatherlink.com 1.10,2013-05-27 00:30:00,
2013-05-26 20:46:00,64.5,40.0,30.20,East,84,0.0,2.0,40,0.00,,,0.00,26,weatherlink.com 1.10,2013-05-27 00:46:00,
2013-05-26 21:01:00,64.0,40.0,30.20,East,86,0.0,2.0,42,0.00,,,0.00,21,weatherlink.com 1.10,2013-05-27 01:01:00,
2013-05-26 21:16:00,63.4,40.0,30.20,East,86,0.0,1.0,43,0.00,,,0.00,16,weatherlink.com 1.10,2013-05-27 01:16:00,
2013-05-26 21:31:00,62.7,40.0,30.20,East,86,0.0,2.0,44,0.00,,,0.00,0,weatherlink.com 1.10,2013-05-27 01:31:00,
2013-05-26 21:46:00,62.0,41.0,30.20,East,86,0.0,0.0,46,0.00,,,0.00,0,weatherlink.com 1.10,2013-05-27 01:46:00,
2013-05-26 22:01:00,61.0,40.0,30.21,East,86,0.0,1.0,47,0.00,,,0.00,0,weatherlink.com 1.10,2013-05-27 02:01:00,
2013-05-26 22:16:00,60.4,40.0,30.21,East,86,2.0,5.0,48,0.00,,,0.00,0,weatherlink.com 1.10,2013-05-27 02:16:00,
2013-05-26 22:31:00,60.4,40.0,30.22,East,98,1.0,6.0,48,0.00,,,0.00,0,weatherlink.com 1.10,2013-05-27 02:31:00,
2013-05-26 22:46:00,60.2,41.0,30.22,ENE,68,3.0,8.0,49,0.00,,,0.00,0,weatherlink.com 1.10,2013-05-27 02:46:00,
2013-05-26 23:01:00,60.0,41.0,30.23,ENE,78,0.0,4.0,49,0.00,,,0.00,0,weatherlink.com 1.10,2013-05-27 03:01:00,
2013-05-26 23:16:00,59.7,40.0,30.23,ENE,70,0.0,4.0,49,0.00,,,0.00,0,weatherlink.com 1.10,2013-05-27 03:16:00,
2013-05-26 23:31:00,59.1,40.0,30.23,East,82,1.0,4.0,50,0.00,,,0.00,0,weatherlink.com 1.10,2013-05-27 03:31:00,
2013-05-26 23:46:00,58.6,40.0,30.23,East,100,5.0,5.0,51,0.00,,,0.00,0,weatherlink.com 1.10,2013-05-27 03:46:00,